Location: Warszawa
(52.2500°N, 21.0000°E)
Time: 11:27:32
(UTC+01:00)

Altair - Visible Passes

Search period start: 28 January 2023 00:00
Search period end: 07 February 2023 00:00
Orbit: 1501 x 1683 km, 47.2° (Epoch: 27 January)

Date Brightness Start Highest point End Pass type
(mag) Time Alt. Az. Time Alt. Az. Time Alt. Az.
28 Jan 9.1 03:09:45 18° SSE 03:09:45 18° SSE 03:12:07 10° SSE visible
28 Jan 9.2 05:07:49 10° SW 05:07:49 10° SW 05:08:05 10° SW visible
28 Jan 9.0 18:19:38 10° SSE 18:23:28 14° SE 18:23:28 14° SE visible
28 Jan 8.8 20:17:34 10° SSW 20:21:31 25° SSW 20:21:31 25° SSW visible
29 Jan 9.4 02:46:29 12° SSE 02:46:29 12° SSE 02:47:11 10° SSE visible
29 Jan 9.0 17:55:37 10° SE 17:58:57 12° ESE 18:00:11 12° ESE visible
29 Jan 8.4 19:52:39 10° SSW 19:58:15 31° S 19:58:15 31° S visible
29 Jan 9.4 21:55:15 10° WSW 21:56:18 14° WSW 21:56:18 14° WSW visible
30 Jan 9.1 17:32:11 10° SE 17:33:58 11° ESE 17:35:46 10° ESE visible
30 Jan 8.2 19:27:44 10° SSW 19:34:56 34° SSE 19:34:56 34° SSE visible
30 Jan 9.0 21:30:08 10° WSW 21:32:59 22° WSW 21:32:59 22° WSW visible
31 Jan 8.2 19:02:50 10° SSW 19:11:07 33° SE 19:11:33 33° SE visible
31 Jan 8.6 21:05:01 10° WSW 21:09:36 32° SW 21:09:36 32° SW visible
01 Feb 8.3 18:37:58 10° SSW 18:46:02 31° SE 18:48:07 29° ESE visible
01 Feb 8.2 20:39:55 10° WSW 20:46:10 42° SW 20:46:10 42° SW visible
01 Feb 9.6 22:43:52 10° W 22:44:13 11° W 22:44:13 11° W visible
02 Feb 8.4 18:13:10 10° SSW 18:20:58 29° SE 18:24:39 23° ESE visible
02 Feb 7.8 20:14:50 10° SW 20:22:41 52° SSW 20:22:41 52° SSW visible
02 Feb 9.3 22:18:43 10° W 22:20:44 18° W 22:20:44 18° W visible
03 Feb 8.5 17:48:22 10° S 17:55:55 27° SE 18:01:07 17° E visible
03 Feb 7.7 19:49:46 10° SW 19:59:08 55° SSE 19:59:09 55° SSE visible
03 Feb 8.9 21:53:33 10° W 21:57:12 27° WSW 21:57:12 27° WSW visible
04 Feb 8.6 17:23:37 10° S 17:30:52 25° SE 17:37:32 12° E visible
04 Feb 7.7 19:24:42 10° SW 19:33:59 53° SSE 19:35:35 49° SE visible
04 Feb 8.5 21:28:23 10° W 21:33:36 37° WSW 21:33:36 37° WSW visible
05 Feb 8.7 16:58:54 10° S 17:05:50 23° SE 17:12:56 10° E visible
05 Feb 7.8 18:59:39 10° SW 19:08:51 51° SSE 19:11:57 39° ESE visible
05 Feb 8.1 21:03:13 10° WSW 21:09:59 48° WSW 21:09:59 48° WSW visible
05 Feb 9.6 23:07:34 10° W 23:08:01 12° W 23:08:01 12° W visible
06 Feb 7.9 18:34:37 10° SW 18:43:43 49° SSE 18:48:17 30° E visible
06 Feb 7.7 20:38:04 10° WSW 20:46:19 61° SW 20:46:19 61° SW visible
06 Feb 9.3 22:42:22 10° W 22:44:21 18° W 22:44:21 18° W visible
